Sedona, AZ

4:54 PM MST on October 14, 2019 (GMT -0700)
Sedona

Weather History for KSEZ - August, 2019

Change the Weather History Date:

Wednesday, August 28, 2019

  Actual Average Record
Temperature  
Mean Temperature 82 °F -  
Max Temperature 91 °F 93 °F 98 °F (2011)
Min Temperature 73 °F 60 °F 60 °F (2010)
Cooling Degree Days 17    
Growing Degree Days 32 (Base 50)    
Moisture  
Dew Point 50 °F    
Average Humidity 33    
Maximum Humidity 57    
Minimum Humidity 24    
Precipitation  
Precipitation 0.00 in - - ()
Sea Level Pressure  
Sea Level Pressure 30.16 in    
Wind  
Wind Speed 4 mph (NE)    
Max Wind Speed 16 mph    
Max Gust Speed 21 mph    
Visibility 10 miles    
Events Thunderstorm    
Averages and records for this station are not official NWS values.
T = Trace of Precipitation, MM = Missing Value Source: NWS Daily Summary

Daily Weather History Graph

Daily Weather History Graph

Search for Another Location

Airport or City:

Astronomy

Aug. 28, 2019 Rise Set
Actual Time 5:56 AM MST 6:59 PM MST
Civil Twilight 5:30 AM MST 7:25 PM MST
Nautical Twilight 5:00 AM MST 7:55 PM MST
Astronomical Twilight 4:28 AM MST 8:27 PM MST
Moon 3:40 AM MST (8/28) 6:08 PM MST (8/28)
Length of Visible Light 13h 54m
Length of Day
13h 02m
Waning Crescent, 4% of the Moon is Illuminated
Aug 28
Waning Crescent
Aug 30
New
Sep 5
First Quarter
Sep 13
Full
Sep 21
Last Quarter

Hourly Weather History & Observations

Time (MST) Temp. Heat Index Dew Point Humidity Pressure Visibility Wind Dir Wind Speed Gust Speed Precip Events Conditions
12:15 AM 82.4 °F - 48.2 °F 30% 30.11 in 10.0 mi East 3.5 mph - N/A   Clear
12:35 AM 80.6 °F - 48.2 °F 32% 30.11 in 10.0 mi Calm Calm - N/A   Clear
12:55 AM 78.8 °F - 46.4 °F 32% 30.11 in 10.0 mi NNE 6.9 mph - N/A   Clear
1:15 AM 78.8 °F - 46.4 °F 32% 30.11 in 10.0 mi NNE 4.6 mph - N/A   Clear
1:35 AM 78.8 °F - 46.4 °F 32% 30.11 in 10.0 mi NNE 3.5 mph - N/A   Clear
1:55 AM 78.8 °F - 48.2 °F 34% 30.11 in 10.0 mi NE 3.5 mph - N/A   Clear
2:15 AM 77.0 °F - 46.4 °F 34% 30.11 in 10.0 mi NNE 4.6 mph - N/A   Clear
2:35 AM 77.0 °F - 46.4 °F 34% 30.11 in 10.0 mi NNE 4.6 mph - N/A   Clear
2:55 AM 77.0 °F - 46.4 °F 34% 30.11 in 10.0 mi NNE 8.1 mph - N/A   Clear
3:15 AM 77.0 °F - 46.4 °F 34% 30.11 in 10.0 mi NNE 8.1 mph - N/A   Clear
3:35 AM 77.0 °F - 46.4 °F 34% 30.11 in 10.0 mi NNE 9.2 mph - N/A   Clear
3:55 AM 77.0 °F - 48.2 °F 36% 30.11 in 10.0 mi NNE 5.8 mph - N/A   Clear
4:15 AM 77.0 °F - 48.2 °F 36% 30.11 in 10.0 mi North 6.9 mph - N/A   Clear
4:35 AM 75.2 °F - 48.2 °F 38% 30.12 in 10.0 mi NNE 3.5 mph - N/A   Clear
4:55 AM 77.0 °F - 48.2 °F 36% 30.12 in 10.0 mi Calm Calm - N/A   Clear
5:15 AM 77.0 °F - 48.2 °F 36% 30.13 in 10.0 mi Calm Calm - N/A   Clear
5:35 AM 77.0 °F - 48.2 °F 36% 30.15 in 10.0 mi Calm Calm - N/A   Clear
5:55 AM 75.2 °F - 48.2 °F 38% 30.15 in 10.0 mi Calm Calm - N/A   Clear
6:15 AM 75.2 °F - 48.2 °F 38% 30.17 in 10.0 mi Calm Calm - N/A   Clear
6:35 AM 73.4 °F - 48.2 °F 41% 30.17 in 10.0 mi NNE 3.5 mph - N/A   Clear
6:55 AM 77.0 °F - 48.2 °F 36% 30.18 in 10.0 mi Calm Calm - N/A   Clear
7:15 AM 78.8 °F - 48.2 °F 34% 30.18 in 10.0 mi NNE 3.5 mph - N/A   Clear
7:35 AM 80.6 °F - 48.2 °F 32% 30.18 in 10.0 mi Calm Calm - N/A   Clear
7:55 AM 82.4 °F - 50.0 °F 32% 30.19 in 10.0 mi East 3.5 mph - N/A   Clear
8:15 AM 82.4 °F - 50.0 °F 32% 30.19 in 10.0 mi Calm Calm - N/A   Clear
8:35 AM 86.0 °F - 50.0 °F 29% 30.19 in 10.0 mi SE 4.6 mph - N/A   Clear
8:55 AM 86.0 °F - 50.0 °F 29% 30.20 in 10.0 mi SE 4.6 mph - N/A   Clear
9:15 AM 86.0 °F - 51.8 °F 31% 30.21 in 10.0 mi South 4.6 mph - N/A   Scattered Clouds
9:35 AM 87.8 °F 85.7 °F 53.6 °F 31% 30.22 in 10.0 mi SE 6.9 mph - N/A   Scattered Clouds
9:55 AM 91.4 °F 89.1 °F 53.6 °F 28% 30.22 in 10.0 mi South 3.5 mph - N/A   Clear
10:15 AM 89.6 °F 87.3 °F 53.6 °F 29% 30.22 in 10.0 mi SSE 3.5 mph - N/A   Clear
10:35 AM 89.6 °F 87.3 °F 53.6 °F 29% 30.22 in 10.0 mi South 5.8 mph - N/A   Clear
10:55 AM 91.4 °F - 51.8 °F 26% 30.22 in 10.0 mi South 8.1 mph - N/A   Clear
11:15 AM 91.4 °F - 51.8 °F 26% 30.21 in 10.0 mi Calm Calm - N/A   Clear
11:35 AM 91.4 °F - 51.8 °F 26% 30.21 in 10.0 mi South 6.9 mph - N/A   Clear
11:55 AM 91.4 °F - 51.8 °F 26% 30.21 in 10.0 mi West 4.6 mph - N/A   Clear
12:15 PM 91.4 °F 89.1 °F 53.6 °F 28% 30.19 in 10.0 mi South 9.2 mph - N/A   Clear
12:35 PM 91.4 °F 89.1 °F 53.6 °F 28% 30.19 in 10.0 mi SW 4.6 mph - N/A   Clear
12:55 PM 89.6 °F 87.3 °F 53.6 °F 29% 30.18 in 10.0 mi SSW 10.4 mph 16.1 mph N/A   Clear
1:15 PM 86.0 °F 84.2 °F 53.6 °F 33% 30.19 in 10.0 mi SW 8.1 mph 18.4 mph N/A   Clear
1:35 PM 86.0 °F 84.2 °F 53.6 °F 33% 30.18 in 10.0 mi SSW 8.1 mph - N/A   Clear
1:55 PM 84.2 °F 82.8 °F 53.6 °F 35% 30.18 in 10.0 mi SW 6.9 mph - N/A   Clear
2:15 PM 86.0 °F 84.2 °F 53.6 °F 33% 30.18 in 10.0 mi West 5.8 mph - N/A   Clear
2:35 PM 86.0 °F - 51.8 °F 31% 30.18 in 10.0 mi WNW 4.6 mph - N/A   Clear
2:55 PM 86.0 °F - 51.8 °F 31% 30.17 in 10.0 mi NW 5.8 mph - N/A   Clear
3:15 PM 86.0 °F - 51.8 °F 31% 30.15 in 10.0 mi NNW 5.8 mph - N/A   Scattered Clouds
3:35 PM 86.0 °F - 51.8 °F 31% 30.15 in 10.0 mi ESE 3.5 mph - N/A   Scattered Clouds
3:55 PM 86.0 °F - 51.8 °F 31% 30.14 in 10.0 mi Calm Calm - N/A   Clear
4:15 PM 86.0 °F - 51.8 °F 31% 30.14 in 10.0 mi NW 5.8 mph - N/A   Clear
4:35 PM 86.0 °F - 51.8 °F 31% 30.14 in 10.0 mi Calm Calm - N/A   Clear
4:55 PM 87.8 °F - 50.0 °F 27% 30.14 in 10.0 mi North 6.9 mph - N/A   Clear
5:15 PM 87.8 °F - 50.0 °F 27% 30.13 in 10.0 mi North 8.1 mph - N/A   Clear
5:35 PM 89.6 °F - 48.2 °F 24% 30.12 in 10.0 mi North 6.9 mph - N/A   Clear
5:55 PM 87.8 °F - 50.0 °F 27% 30.12 in 10.0 mi NE 11.5 mph - N/A   Clear
6:15 PM 86.0 °F - 51.8 °F 31% 30.12 in 10.0 mi ENE 10.4 mph - N/A   Clear
6:35 PM 86.0 °F - 50.0 °F 29% 30.13 in 10.0 mi NNE 9.2 mph 18.4 mph N/A   Clear
6:55 PM 84.2 °F - 46.4 °F 27% 30.14 in 10.0 mi North 10.4 mph 16.1 mph N/A   Scattered Clouds
7:55 PM 80.6 °F - 44.6 °F 28% 30.18 in 10.0 mi SE 16.1 mph 20.7 mph N/A Thunderstorm Mostly Cloudy
8:55 PM 77.0 °F - 55.4 °F 47% 30.19 in 10.0 mi Calm Calm - N/A   Scattered Clouds
9:20 PM 77.0 °F - 53.6 °F 44% 30.20 in 10.0 mi West 5.8 mph - N/A   Clear
9:35 PM 73.4 °F - 55.4 °F 53% 30.21 in 10.0 mi SW 4.6 mph - N/A   Clear
9:55 PM 73.4 °F - 55.4 °F 53% 30.21 in 10.0 mi SW 5.8 mph - N/A   Clear
10:15 PM 73.4 °F - 57.2 °F 57% 30.21 in 10.0 mi SSW 5.8 mph - N/A   Clear